Find Starlink 37823

NORAD ID: 69427 Int'l Des: 2026-126 Owner: SPXS Country: US Constellation: starlink operational
LEOCIRCULARRETROGRADE

当前视图

正在加载3D地球...

About Starlink 37823

Starlink 37823 (NORAD 69427) is a starlink constellation satellite (v2 mini) launched Jun 7, 2026 by SPXS of US. It operates in LEO, CIRCULAR, RETROGRADE orbit with a mass of 575.00 kg.

即将过境

Passes for default location (London). Set your location on the main map for personalized predictions.

高度历史

Loading altitude history...

两行轨道根数

1 69427U 26126H 26221.83335647 -.00024881 00000-0 -77066-3 0 9991
2 69427 97.2851 83.6755 0001048 79.8764 147.5686 15.33455358 6027
Epoch: Aug 9, 2026 • Age: 11 hours

当前状态

高度 477.0 km
远地点 / 近地点 N/A
速度 7.63 km/s
星下点 -29.49°S, 18.3°E
发射日期 Jun 7, 2026
运行时间 0.1 years
类型 internet

技术详情

分类 Payload
质量 575.00 kg
干质量 530.00 kg
总质量 575.00 kg
长度 0.30 m
直径 4.10 m
跨度 29.00 m
形状 Box + pan
制造商 SPXS
平台类型 Starlink V2MO
阶段状态 In Orbit
所有者/国家 SPXS/US

Most Searched